FW4286 Weather Reports


time (UTC)temp
C
wind
direction
speed
KPH
gust
KPH
rain 1hr
cm
rain 24hr
cm
rain mn
cm
humidity
%
barometer
mb
20260510211457 29 207 4.8 14.5 0.00 0.00 0.00 40 1014.7
20260510210957 29 273 6.4 14.5 0.00 0.00 0.00 44 1014.7
20260510210001 29 221 3.2 17.7 0.00 0.00 0.00 43 1014.8
20260510205457 28 281 8.0 17.7 0.00 0.00 0.00 44 1014.7
20260510204957 29 252 6.4 14.5 0.00 0.00 0.00 41 1014.7
20260510204457 29 294 8.0 14.5 0.00 0.00 0.00 40 1014.7
20260510203957 28 60 4.8 14.5 0.00 0.00 0.00 44 1014.8
20260510203457 28 160 6.4 9.7 0.00 0.00 0.00 43 1014.7
20260510202957 28 190 3.2 4.8 0.00 0.00 0.00 44 1014.9
20260510202457 28 293 1.6 11.3 0.00 0.00 0.00 43 1014.8
20260510201958 28 302 4.8 12.9 0.00 0.00 0.00 41 1014.8
20260510201457 29 285 6.4 14.5 0.00 0.00 0.00 39 1014.9
20260510200957 29 281 4.8 14.5 0.00 0.00 0.00 41 1014.9
20260510200458 29 205 1.6 8.0 0.00 0.00 0.00 43 1014.9
20260510200001 29 137 3.2 8.0 0.00 0.00 0.00 41 1014.9
20260510194457 28 191 1.6 8.0 0.00 0.00 0.00 43 1015.0
20260510193958 28 279 4.8 17.7 0.00 0.00 0.00 44 1015.0
20260510193457 28 277 9.7 17.7 0.00 0.00 0.00 44 1015.0
20260510192957 28 278 3.2 9.7 0.00 0.00 0.00 45 1015.0
20260510192457 28 355 3.2 9.7 0.00 0.00 0.00 45 1015.2
20260510191958 28 315 3.2 8.0 0.00 0.00 0.00 48 1015.3
20260510191458 28 277 1.6 12.9 0.00 0.00 0.00 46 1015.3
20260510190957 28 257 4.8 14.5 0.00 0.00 0.00 46 1015.4
20260510185459 28 284 6.4 17.7 0.00 0.00 0.00 46 1015.6
20260510184958 29 288 8.0 17.7 0.00 0.00 0.00 44 1015.6
20260510184457 29 241 6.4 12.9 0.00 0.00 0.00 42 1015.5
20260510183957 30 117 3.2 9.7 0.00 0.00 0.00 44 1015.7
20260510183458 29 212 6.4 9.7 0.00 0.00 0.00 47 1015.7
20260510182957 29 246 4.8 12.9 0.00 0.00 0.00 46 1015.7
20260510182458 29 201 4.8 12.9 0.00 0.00 0.00 48 1015.6
20260510181959 28 212 8.0 12.9 0.00 0.00 0.00 48 1015.6
20260510181457 28 248 3.2 8.0 0.00 0.00 0.00 49 1015.8
20260510180957 28 315 6.4 8.0 0.00 0.00 0.00 48 1015.8
20260510180457 28 163 3.2 9.7 0.00 0.00 0.00 49 1015.8
20260510180000 28 198 4.8 8.0 0.00 0.00 0.00 48 1015.8
20260510175457 27 203 4.8 11.3 0.00 0.00 0.00 49 1015.8
20260510174958 27 221 4.8 14.5 0.00 0.00 0.00 51 1015.8
20260510173957 27 350 9.7 17.7 0.00 0.00 0.00 48 1015.8
20260510173458 28 292 6.4 9.7 0.00 0.00 0.00 47 1015.8
20260510172458 28 184 6.4 11.3 0.00 0.00 0.00 50 1015.9
20260510171958 28 184 4.8 11.3 0.00 0.00 0.00 50 1015.9
20260510171457 28 105 3.2 11.3 0.00 0.00 0.00 50 1015.9
20260510170957 27 230 4.8 11.3 0.00 0.00 0.00 52 1016.0
20260510170457 27 211 4.8 11.3 0.00 0.00 0.00 53 1015.9
20260510170000 27 209 4.8 11.3 0.00 0.00 0.00 54 1016.0
20260510165457 26 166 6.4 11.3 0.00 0.00 0.00 55 1015.9
20260510164956 26 154 4.8 9.7 0.00 0.00 0.00 54 1016.0
20260510164456 25 228 3.2 8.0 0.00 0.00 0.00 56 1016.1
20260510163956 25 355 3.2 8.0 0.00 0.00 0.00 56 1016.1
20260510163456 26 49 3.2 8.0 0.00 0.00 0.00 55 1016.2
20260510162956 26 26 4.8 8.0 0.00 0.00 0.00 55 1016.2
20260510162456 26 334 3.2 8.0 0.00 0.00 0.00 56 1016.2
20260510161456 26 148 4.8 16.1 0.00 0.00 0.00 56 1016.2
20260510160956 26 107 9.7 16.1 0.00 0.00 0.00 56 1016.3
20260510160456 26 202 1.6 9.7 0.00 0.00 0.00 56 1016.2
20260510155959 25 321 1.6 9.7 0.00 0.00 0.00 55 1016.3
20260510155457 26 71 3.2 12.9 0.00 0.00 0.00 56 1016.4
20260510154956 26 42 6.4 12.9 0.00 0.00 0.00 57 1016.4
20260510153957 25 168 1.6 11.3 0.00 0.00 0.00 58 1016.5
20260510153456 25 252 6.4 11.3 0.00 0.00 0.00 58 1016.5
20260510152957 25 309 4.8 8.0 0.00 0.00 0.00 59 1016.5
20260510152456 25 71 3.2 8.0 0.00 0.00 0.00 59 1016.4
20260510151957 25 182 3.2 9.7 0.00 0.00 0.00 60 1016.4
20260510151456 25 42 6.4 9.7 0.00 0.00 0.00 61 1016.4
20260510150957 24 313 3.2 12.9 0.00 0.00 0.00 63 1016.4
20260510150457 24 288 3.2 12.9 0.00 0.00 0.00 63 1016.4
20260510145959 24 238 6.4 11.3 0.00 0.00 0.00 65 1016.4
20260510145456 25 254 4.8 8.0 0.00 0.00 0.00 64 1016.4
20260510144957 24 147 4.8 9.7 0.00 0.00 0.00 66 1016.4
20260510144456 23 205 3.2 12.9 0.00 0.00 0.00 68 1016.4
20260510143456 23 212 1.6 6.4 0.00 0.00 0.00 68 1016.4
20260510142956 23 278 3.2 8.0 0.00 0.00 0.00 68 1016.3
20260510142456 23 239 4.8 8.0 0.00 0.00 0.00 69 1016.3
20260510141956 22 315 4.8 12.9 0.00 0.00 0.00 70 1016.4
20260510141457 22 263 4.8 12.9 0.00 0.00 0.00 72 1016.3
20260510140956 22 263 6.4 11.3 0.00 0.00 0.00 72 1016.3
20260510140457 22 347 3.2 6.4 0.00 0.00 0.00 73 1016.4
20260510135456 22 332 3.2 8.0 0.00 0.00 0.00 74 1016.5
20260510134956 22 281 3.2 8.0 0.00 0.00 0.00 77 1016.4
20260510134456 21 252 4.8 8.0 0.00 0.00 0.00 76 1016.4
20260510133956 21 266 4.8 9.7 0.00 0.00 0.00 76 1016.3
20260510133457 21 263 4.8 11.3 0.00 0.00 0.00 77 1016.2
20260510132456 21 277 3.2 6.4 0.00 0.00 0.00 82 1016.1
20260510131957 20 277 3.2 6.4 0.00 0.00 0.00 82 1016.2
20260510131456 20 261 3.2 11.3 0.00 0.00 0.00 84 1016.3
20260510130956 20 261 6.4 11.3 0.00 0.00 0.00 85 1016.2
20260510130456 20 269 3.2 9.7 0.00 0.00 0.00 87 1016.2
20260510125959 19 261 4.8 9.7 0.00 0.00 0.00 87 1016.1
20260510125457 19 254 3.2 6.4 0.00 0.00 0.00 91 1016.0
20260510124957 18 206 4.8 9.7 0.00 0.00 0.00 92 1016.0
20260510124456 18 288 4.8 9.7 0.00 0.00 0.00 93 1016.1
20260510123956 18 282 1.6 4.8 0.00 0.00 0.00 94 1016.0
20260510122956 17 282 1.6 4.8 0.00 0.00 0.00 95 1015.9
20260510122457 17 282 1.6 4.8 0.00 0.00 0.00 95 1015.9
20260510121956 17 282 1.6 6.4 0.00 0.00 0.00 95 1016.0
20260510120957 16 282 3.2 4.8 0.00 0.00 0.00 95 1015.9
20260510120457 16 209 0.0 3.2 0.00 0.00 0.00 95 1015.9
20260510115959 16 209 0.0 1.6 0.00 0.00 0.00 95 1015.8
20260510115456 16 319 0.0 0.0 0.00 0.00 0.00 94 1015.8
20260510114956 16 319 0.0 0.0 0.00 0.00 0.00 94 1015.6
20260510114456 16 319 0.0 0.0 0.00 0.00 0.00 94 1015.5
20260510113956 16 319 0.0 0.0 0.00 0.00 0.00 94 1015.5
20260510113458 16 319 0.0 0.0 0.00 0.00 0.00 94 1015.5
20260510112956 15 319 0.0 0.0 0.00 0.00 0.00 94 1015.4
20260510112456 15 319 0.0 0.0 0.00 0.00 0.00 94 1015.3
20260510111956 15 319 0.0 0.0 0.00 0.00 0.00 94 1015.3
20260510111456 15 319 0.0 1.6 0.00 0.00 0.00 94 1015.1
20260510110956 15 319 0.0 1.6 0.00 0.00 0.00 94 1015.1
20260510110456 15 319 0.0 1.6 0.00 0.00 0.00 94 1015.0
20260510105959 15 319 0.0 0.0 0.00 0.00 0.00 94 1015.1
20260510105456 15 319 0.0 0.0 0.00 0.00 0.00 94 1015.2
20260510104957 15 319 0.0 0.0 0.00 0.00 0.00 94 1015.0
20260510104456 15 131 0.0 0.0 0.00 0.00 0.00 94 1014.9
20260510103457 15 163 0.0 0.0 0.00 0.00 0.00 94 1014.7
20260510102956 15 163 0.0 1.6 0.00 0.00 0.00 94 1014.5
20260510102456 15 163 0.0 1.6 0.00 0.00 0.00 94 1014.4
20260510101456 15 226 0.0 3.2 0.00 0.00 0.00 94 1014.3
20260510100956 15 226 1.6 3.2 0.00 0.00 0.00 94 1014.4
20260510100456 15 226 0.0 1.6 0.00 0.00 0.00 94 1014.2
20260510095959 15 226 0.0 1.6 0.00 0.00 0.00 94 1014.0
20260510095456 15 115 0.0 1.6 0.00 0.00 0.00 94 1014.1
20260510094956 15 154 0.0 0.0 0.00 0.00 0.00 93 1014.0
20260510094456 15 154 0.0 0.0 0.00 0.00 0.00 93 1013.9
20260510093956 15 154 0.0 0.0 0.00 0.00 0.00 93 1014.0
20260510093457 15 154 0.0 0.0 0.00 0.00 0.00 93 1014.0
20260510092956 15 154 0.0 0.0 0.00 0.00 0.00 93 1014.0
20260510092457 15 154 0.0 0.0 0.00 0.00 0.00 93 1014.0
20260510091456 15 154 0.0 0.0 0.00 0.00 0.00 93 1013.8
20260510090956 15 154 0.0 0.0 0.00 0.00 0.00 93 1013.8
20260510090456 15 154 0.0 0.0 0.00 0.00 0.00 93 1013.8
20260510085958 15 154 0.0 0.0 0.00 0.00 0.00 93 1013.8
20260510085455 15 154 0.0 0.0 0.00 0.00 0.00 93 1013.7
20260510084955 15 154 0.0 0.0 0.00 0.00 0.00 93 1013.7
20260510084455 15 154 0.0 0.0 0.00 0.00 0.00 93 1013.5
20260510083955 15 154 0.0 0.0 0.00 0.00 0.00 93 1013.5
20260510083455 15 154 0.0 0.0 0.00 0.00 0.00 93 1013.5
20260510082955 15 154 0.0 0.0 0.00 0.00 0.00 93 1013.5
20260510081955 15 154 0.0 0.0 0.00 0.00 0.00 93 1013.4
20260510081455 15 154 0.0 0.0 0.00 0.00 0.00 93 1013.3
20260510080955 15 154 0.0 0.0 0.00 0.00 0.00 93 1013.4
20260510080455 15 154 0.0 0.0 0.00 0.00 0.00 93 1013.4
20260510075958 15 154 0.0 0.0 0.00 0.00 0.00 93 1013.4
20260510075455 15 154 0.0 0.0 0.00 0.00 0.00 92 1013.3
20260510074956 15 154 0.0 0.0 0.00 0.00 0.00 93 1013.3
20260510074455 15 154 0.0 0.0 0.00 0.00 0.00 92 1013.2
20260510073955 15 154 0.0 0.0 0.00 0.00 0.00 93 1013.2
20260510073455 15 154 0.0 0.0 0.00 0.00 0.00 92 1013.2
20260510072456 15 154 0.0 0.0 0.00 0.00 0.00 92 1013.2
20260510071955 15 154 0.0 0.0 0.00 0.00 0.00 92 1013.3
20260510071455 15 154 0.0 0.0 0.00 0.00 0.00 92 1013.1
20260510070955 15 154 0.0 0.0 0.00 0.00 0.00 92 1013.1
20260510070455 15 154 0.0 0.0 0.00 0.00 0.00 92 1013.1
20260510065958 15 154 0.0 0.0 0.00 0.00 0.00 92 1013.1
20260510064455 15 154 0.0 0.0 0.00 0.00 0.00 92 1013.3
20260510063955 15 154 0.0 0.0 0.00 0.00 0.00 92 1013.3
20260510063455 15 154 0.0 0.0 0.00 0.00 0.00 92 1013.2
20260510062955 15 154 0.0 0.0 0.00 0.00 0.00 92 1013.2
20260510062456 15 154 0.0 0.0 0.00 0.00 0.00 92 1013.2
20260510061956 15 154 0.0 0.0 0.00 0.00 0.00 92 1013.1
20260510061455 15 154 0.0 0.0 0.00 0.00 0.00 92 1013.1
20260510060955 15 154 0.0 0.0 0.00 0.00 0.00 92 1013.1
20260510060455 15 154 0.0 0.0 0.00 0.00 0.00 92 1013.1
20260510055958 15 154 0.0 0.0 0.00 0.00 0.00 92 1013.2
20260510055456 15 154 0.0 0.0 0.00 0.00 0.00 92 1013.2
20260510054955 16 154 0.0 0.0 0.00 0.00 0.00 92 1013.3
20260510054455 16 154 0.0 0.0 0.00 0.00 0.00 92 1013.4
20260510053455 16 154 0.0 0.0 0.00 0.00 0.00 92 1013.6
20260510052956 16 154 0.0 0.0 0.00 0.00 0.00 92 1013.5
20260510052455 16 154 0.0 0.0 0.00 0.00 0.00 92 1013.5
20260510051955 16 154 0.0 0.0 0.00 0.00 0.00 91 1013.6
20260510050955 16 154 0.0 0.0 0.00 0.00 0.00 91 1013.7
20260510050455 16 154 0.0 0.0 0.00 0.00 0.00 91 1013.7
20260510045958 16 154 0.0 0.0 0.00 0.00 0.00 91 1013.7
20260510045455 16 154 0.0 0.0 0.00 0.00 0.00 91 1013.8
20260510044955 16 154 0.0 0.0 0.00 0.00 0.00 91 1013.8
20260510044455 16 154 0.0 0.0 0.00 0.00 0.00 91 1013.9
20260510043955 16 154 0.0 0.0 0.00 0.00 0.00 91 1013.8
20260510043455 16 154 0.0 0.0 0.00 0.00 0.00 91 1013.8
20260510042957 16 154 0.0 0.0 0.00 0.00 0.00 91 1013.9
20260510042455 16 154 0.0 0.0 0.00 0.00 0.00 91 1013.8
20260510041956 16 154 0.0 0.0 0.00 0.00 0.00 91 1013.7
20260510041456 16 154 0.0 0.0 0.00 0.00 0.00 91 1013.6
20260510040455 16 154 0.0 0.0 0.00 0.00 0.00 90 1013.6
20260510040003 16 154 0.0 0.0 0.00 0.00 0.00 90 1013.7
20260510035458 16 154 0.0 0.0 0.00 0.00 0.00 90 1013.6
20260510035000 16 154 0.0 0.0 0.00 0.00 0.00 90 1013.5
20260510034458 16 154 0.0 0.0 0.00 0.00 0.00 90 1013.5
20260510033459 16 154 0.0 0.0 0.00 0.00 0.00 90 1013.5
20260510032958 16 154 0.0 0.0 0.00 0.00 0.00 89 1013.4
20260510032458 17 154 0.0 0.0 0.00 0.00 0.00 89 1013.4
20260510031958 17 154 0.0 0.0 0.00 0.00 0.00 89 1013.4
20260510031458 17 154 0.0 0.0 0.00 0.00 0.00 89 1013.2
20260510030958 17 154 0.0 0.0 0.00 0.00 0.00 89 1013.3
20260510030458 17 154 0.0 0.0 0.00 0.00 0.00 89 1013.4
20260510030001 17 154 0.0 0.0 0.00 0.00 0.00 89 1013.2
20260510024959 17 154 0.0 0.0 0.00 0.00 0.00 89 1013.3
20260510024458 17 154 0.0 0.0 0.00 0.00 0.00 89 1013.2
20260510023958 17 154 0.0 0.0 0.00 0.00 0.00 89 1013.2
20260510022958 17 154 0.0 0.0 0.00 0.00 0.00 89 1013.1
20260510022458 17 154 0.0 0.0 0.00 0.00 0.00 89 1013.2
20260510021958 17 154 0.0 0.0 0.00 0.00 0.00 89 1013.2
20260510020458 18 154 0.0 0.0 0.00 0.00 0.00 88 1012.8
20260510020002 18 154 0.0 0.0 0.00 0.00 0.00 87 1012.9
20260510015458 18 154 0.0 0.0 0.00 0.00 0.00 87 1013.0
20260510014458 18 154 0.0 0.0 0.00 0.00 0.00 87 1012.8
20260510014000 18 154 0.0 0.0 0.00 0.00 0.00 86 1012.7
20260510013458 18 154 0.0 1.6 0.00 0.00 0.00 86 1012.6
20260510012958 18 154 0.0 1.6 0.00 0.00 0.00 86 1012.5
20260510012459 18 154 0.0 1.6 0.00 0.00 0.00 86 1012.5
20260510011959 18 154 0.0 1.6 0.00 0.00 0.00 85 1012.4
20260510011459 19 154 0.0 3.2 0.00 0.00 0.00 85 1012.5
20260510010958 19 154 1.6 3.2 0.00 0.00 0.00 84 1012.5
20260510010458 19 154 0.0 0.0 0.00 0.00 0.00 84 1012.5
20260510010000 19 154 0.0 1.6 0.00 0.00 0.00 84 1012.4
20260510005457 20 154 0.0 1.6 0.00 0.00 0.00 84 1012.3
20260510004457 20 154 1.6 3.2 0.00 0.00 0.00 82 1012.2
20260510003957 20 154 1.6 3.2 0.00 0.00 0.00 81 1012.1
20260510003457 20 154 0.0 3.2 0.00 0.00 0.00 80 1012.0
20260510002957 21 175 0.0 1.6 0.00 0.00 0.00 80 1011.9
20260510001959 21 5 0.0 1.6 0.00 0.00 0.00 78 1012.1
20260510001457 21 171 0.0 1.6 0.00 0.00 0.00 78 1012.0
20260510000957 21 171 0.0 1.6 0.00 0.00 0.00 77 1012.0
20260510000457 22 242 0.0 0.0 0.00 0.00 0.00 77 1012.1
20260509235457 22 242 0.0 0.0 0.00 0.00 0.00 76 1011.7
20260509234958 22 242 0.0 0.0 0.00 0.00 0.00 77 1011.7
20260509234459 22 242 0.0 0.0 0.00 0.00 0.00 76 1011.7
20260509233458 22 296 0.0 3.2 0.00 0.00 0.00 76 1011.5
20260509232957 22 254 1.6 3.2 0.00 0.00 0.00 75 1011.4
20260509232458 22 253 0.0 0.0 0.00 0.00 0.00 73 1011.3
20260509231957 22 254 0.0 0.0 0.00 0.00 0.00 73 1011.2
20260509231457 22 255 0.0 0.0 0.00 0.00 0.00 72 1011.2
20260509230957 23 220 0.0 1.6 0.00 0.00 0.00 72 1011.3
20260509230000 23 143 0.0 0.0 0.00 0.00 0.00 72 1011.3
20260509225458 23 165 0.0 3.2 0.00 0.00 0.00 72 1011.2
20260509224957 23 304 0.0 3.2 0.00 0.00 0.00 71 1011.1
20260509224457 23 227 0.0 3.2 0.00 0.00 0.00 71 1011.1
20260509223957 23 180 1.6 6.4 0.00 0.00 0.00 71 1011.2
20260509222958 23 225 1.6 4.8 0.00 0.00 0.00 70 1011.2
20260509222457 23 225 1.6 6.4 0.00 0.00 0.00 70 1011.2
20260509221957 23 225 3.2 6.4 0.00 0.00 0.00 69 1011.1
20260509221458 23 225 1.6 4.8 0.00 0.00 0.00 69 1011.1
20260509220957 23 212 1.6 6.4 0.00 0.00 0.00 70 1011.2
20260509220458 23 212 3.2 9.7 0.00 0.00 0.00 70 1011.3
20260509220001 23 229 4.8 8.0 0.00 0.00 0.00 70 1011.2
20260509215458 23 227 4.8 8.0 0.00 0.00 0.00 70 1011.3
20260509214957 23 284 3.2 8.0 0.00 0.00 0.00 69 1011.3
20260509214457 23 205 4.8 9.7 0.00 0.00 0.00 70 1011.4
20260509213957 23 215 4.8 9.7 0.00 0.00 0.00 69 1011.3
20260509213457 23 203 4.8 11.3 0.00 0.00 0.00 69 1011.2
20260509212957 23 222 3.2 14.5 0.00 0.00 0.00 69 1011.2
20260509212459 23 192 6.4 14.5 0.00 0.00 0.00 69 1011.1
20260509211957 23 205 4.8 12.9 0.00 0.00 0.00 69 1011.1